Regional Weather Roundup
Issued by NWS

Home | Current Version | Previous Version | Text Only | Print | Product List | Glossary Off
Versions: 1 2 3 4 5 6 7 8 9 10 11 12 13 14 15 16 17 18 19 20 21 22 23 24 25 26 27 28 29 30 31 32 33 34 35 36 37 38 39 40 41 42 43 44 45 46 47 48 49 50

000
ASUS43 KBIS 291610
RWRND

NORTH DAKOTA REGIONAL WEATHER ROUNDUP
NATIONAL WEATHER SERVICE BISMARCK ND
1100 AM CDT WED JUL 29 2015

NOTE: "FAIR" INDICATES FEW OR NO CLOUDS BELOW 12,000 FEET WITH NO
SIGNIFICANT WEATHER AND/OR OBSTRUCTIONS TO VISIBILITY.


NDZ001>003-009>011-017-291700-
NORTHWEST NORTH DAKOTA

CITY           SKY/WX    TMP DP  RH WIND       PRES   REMARKS
WILLISTON      PTSUNNY   72  51  47 W17       30.05R
MINOT          MOSUNNY   73  52  47 W22G30    29.93S
MINOT AFB      SUNNY     73  56  55 W23G29    29.91S
$$

NDZ018>021-031>035-040>046-291700-
SOUTHWEST NORTH DAKOTA

CITY           SKY/WX    TMP DP  RH WIND       PRES   REMARKS
BISMARCK       SUNNY     75  49  39 W20G33    30.02S
DICKINSON      PTSUNNY   70  46  42 W23G30    30.10R
GARRISON         N/A     68  54  60 W20G26    30.00R
HETTINGER ARPT SUNNY     72  44  36 W17       30.16R
$$

NDZ004>008-012>016-024-026-027-054-291700-
NORTHEAST NORTH DAKOTA

CITY           SKY/WX    TMP DP  RH WIND       PRES   REMARKS
GRAND FORKS    MOSUNNY   75  54  47 W30G38    29.73R
GRND FRKS AFB  SUNNY     74  55  51 NW25G41   29.75R
DEVILS LAKE    SUNNY     72  54  53 W24G35    29.82S
$$

NDZ022-023-025-028>030-036>039-047>053-291700-
SOUTHEAST NORTH DAKOTA

CITY           SKY/WX    TMP DP  RH WIND       PRES   REMARKS
FARGO          SUNNY     76  56  49 W26G36    29.84R
JAMESTOWN      SUNNY     73  53  49 W22G32    29.91R
$$




USA.gov is the U.S. government's official web portal to all federal, state and local government web resources and services.